Location: Ajisawe
(8.4333°N, 4.3833°E)
Time: 23:33:22
(UTC+00:00)

Vanguard 1 Rocket - Pass Details

Date: 19 April 2021
Orbit: 652 x 4224 km, 34.3° (Epoch: 10 May)

Event Time Altitude Azimuth Distance (km) Brightness Sun altitude
Rises 21:02:48 0° 295° (WNW) 3,993 11.4 -45.8°
Reaches altitude 10° 21:05:02 10° 291° (WNW) 3,306 10.8 -46.3°
Enters shadow 21:10:19 45° 265° (W) 2,193 9.3 -47.5°
